Lid_Strength_Index
7 7 7 7 7 7 8 7 9 8 8 6 5 5 4 3 3 3 3 3 3 3 3 2 2 2 2 1 1 1 1 1 1 1 1 1 1 1 0 0 0 0 0 -0
8 7 7 8 7 7 7 7 7 7 7 5 4 4 4 3 3 3 3 2 3 3 3 3 2 2 2 2 1 1 1 1 1 1 1 1 1 1 1 0 0 -0 0 0
11 8 8 10 8 7 7 6 6 8 6 5 5 4 4 4 3 3 3 3 2 3 3 2 2 2 2 2 1 1 1 1 1 1 1 1 1 1 1 1 0 0 1 0
11 9 14 8 6 6 6 6 5 5 5 4 4 4 3 3 3 3 3 2 2 2 2 2 2 2 1 1 1 2 2 2 1 1 2 2 1 1 1 1 1 1 1 0
12 12 11 9 8 8 9 8 5 5 5 4 4 3 4 3 2 2 2 2 2 2 2 2 2 1 2 2 2 2 2 2 2 1 2 2 2 1 1 1 1 1 1 1
10 13 14 8 7 6 6 10 5 4 5 5 4 6 5 3 2 2 2 2 2 2 2 2 2 1 2 2 2 2 2 2 1 1 2 2 1 1 1 1 1 1 1 1
11 12 9 7 6 5 11 10 6 5 5 5 5 4 4 3 3 2 2 2 2 2 2 2 1 2 2 2 2 2 1 1 1 1 1 1 1 1 1 1 1 2 2 1
10 11 13 6 6 9 7 5 5 5 5 5 3 4 4 4 3 3 2 2 2 2 2 2 1 2 2 2 1 1 1 1 1 1 1 1 1 1 1 1 1 1 2 1
8 9 7 5 6 5 4 5 5 5 4 4 4 4 4 4 3 3 3 2 2 2 2 2 1 1 2 2 1 1 2 2 2 1 1 1 1 1 2 1 2 2 2 2
8 8 7 6 5 4 4 4 4 3 4 4 4 4 4 3 3 3 3 2 2 2 3 3 1 1 1 1 1 1 2 2 2 2 2 2 1 1 2 2 2 2 2 2
9 7 6 6 5 4 4 3 4 4 4 5 4 4 4 4 4 3 3 2 2 2 3 3 2 2 1 1 1 2 2 2 2 2 2 2 1 2 2 0 2 2 2 2
10 6 7 6 4 4 4 4 4 4 4 3 4 4 4 4 3 3 3 2 3 2 2 2 2 2 1 1 1 2 3 2 2 2 2 2 2 4 13 11 12 12 12 5
8 5 5 4 4 5 5 5 4 4 4 3 3 3 3 3 3 4 2 2 2 2 2 2 2 2 1 1 1 2 2 2 2 2 2 2 2 2 3 8 12 12 11 11
4 4 6 5 6 5 5 5 5 4 4 4 4 4 3 3 3 3 3 2 2 2 2 2 2 2 2 1 1 1 1 5 2 2 2 2 2 2 1 2 2 2 9 8
5 4 4 4 4 5 5 5 6 7 5 4 4 3 3 3 4 3 2 1 1 2 2 2 2 2 1 1 1 1 1 1 1 1 1 1 1 1 1 1 1 2 3 5
5 5 5 6 7 6 6 6 7 6 5 4 4 3 2 2 2 2 2 2 2 2 1 1 1 1 1 1 1 1 1 3 2 1 1 1 1 1 1 1 1 2 2 1
8 8 7 7 7 6 7 6 6 6 5 5 4 3 3 2 2 2 2 1 1 1 1 1 1 1 0 0 1 1 1 1 2 1 1 1 1 1 1 1 1 1 2 2
6 6 5 5 5 5 6 5 4 4 4 4 3 3 3 3 3 3 2 2 2 2 1 1 1 1 1 0 0 1 1 1 1 1 1 1 1 1 0 1 1 1 2 3
5 5 4 4 4 4 4 5 4 3 3 3 2 3 2 2 2 2 2 2 3 3 2 1 3 1 1 1 1 1 1 1 1 1 1 2 1 1 1 1 1 1 2 1
5 5 4 4 4 3 4 3 2 2 2 2 2 2 3 2 2 2 2 3 2 2 1 1 1 1 1 1 1 1 1 1 2 1 1 1 1 1 1 3 1 1 1 2
4 5 5 4 3 2 2 2 2 3 2 2 3 3 3 2 2 2 3 3 2 1 1 2 1 1 1 0 1 1 1 1 2 2 2 1 1 1 1 1 1 1 1 1
4 4 4 3 2 3 3 2 2 2 2 2 2 2 2 2 2 2 1 2 1 4 1 1 1 2 1 2 1 1 2 1 1 0 1 1 1 1 1 1 1 1 1 0
3 3 3 3 2 2 2 2 2 2 2 2 2 2 2 2 2 3 3 1 1 2 1 2 3 2 3 1 1 0 -0 -0 0 0 0 0 1 1 1 1 1 0 0 0
2 2 2 2 1 3 3 2 1 1 1 1 1 1 1 2 2 1 1 2 2 1 1 3 2 3 4 0 0 -0 -0 -0 0 0 0 4 1 1 1 1 1 0 0 1
2 2 2 3 2 3 2 1 2 1 1 2 1 1 0 0 0 1 0 0 2 1 1 4 3 2 0 0 0 1 0 0 0 0 0 0 0 0 1 1 1 1 0 0
2 3 2 1 2 2 2 2 2 2 2 2 2 1 1 0 1 0 1 1 0 1 0 1 0 0 0 0 0 0 0 0 0 0 1 0 0 0 0 1 1 1 1 1
2 4 2 2 2 2 1 2 2 2 2 2 2 1 1 1 1 1 2 1 1 1 1 0 0 1 1 0 1 1 0 0 2 0 0 0 0 0 0 0 1 1 1 1